Le nostre stazioni meteo in Italia

Pubblicità
Il mio iltempo24.it
Grottaglie, Italia (16324): Temperatura & dewpoint: 13.08.2018 10:00:00 - 19.08.2018 10:00:00 (CEST)Grottaglie, Italia (16324): velocità del vento: 13.08.2018 10:00:00 - 19.08.2018 10:00:00 (CEST)Grottaglie, Italia (16324): direzione del vento: 13.08.2018 10:00:00 - 19.08.2018 10:00:00 (CEST)Grottaglie, Italia (16324): visibility: 13.08.2018 10:00:00 - 19.08.2018 10:00:00 (CEST)
Data & Tempo tt [°C] td [°C] ff [km/h] ff [kn] dd vv [km]
19.08.2018 10:00:00 29,0 20,0 22 12 NNE 10
19.08.2018 09:00:00 27,0 20,0 26 14 N 10
19.08.2018 08:00:00 26,0 19,0 9 5 O 10
19.08.2018 07:00:00 - - - - - -
19.08.2018 06:00:00 - - - - - -
19.08.2018 05:00:00 - - - - - -
19.08.2018 04:00:00 - - - - - -
19.08.2018 03:00:00 - - - - - -
19.08.2018 02:00:00 - - - - - -
19.08.2018 01:00:00 - - - - - -
19.08.2018 00:00:00 - - - - - -
18.08.2018 23:00:00 - - - - - -
18.08.2018 22:00:00 - - - - - -
18.08.2018 21:00:00 - - - - - -
18.08.2018 20:00:00 27,0 22,0 13 7 NNE 10
18.08.2018 19:00:00 29,0 20,0 16 9 N 10
18.08.2018 18:00:00 31,0 17,0 15 8 NE 10
18.08.2018 17:00:00 31,0 18,0 16 9 N 10
18.08.2018 16:00:00 32,0 16,0 16 9 NNE 10
18.08.2018 15:00:00 32,0 17,0 15 8 NNE 10
18.08.2018 14:00:00 32,0 18,0 8 4 NE 10
18.08.2018 13:00:00 32,0 18,0 5 3 - 10
18.08.2018 12:00:00 31,0 18,0 8 4 N 10
18.08.2018 11:00:00 30,0 19,0 13 7 N 10
18.08.2018 10:00:00 28,0 20,0 11 6 NNE 10
18.08.2018 09:00:00 27,0 21,0 16 9 N 10
18.08.2018 08:00:00 25,0 22,0 11 6 N 10
18.08.2018 07:00:00 - - - - - -
18.08.2018 06:00:00 - - - - - -
18.08.2018 05:00:00 - - - - - -
18.08.2018 04:00:00 - - - - - -
18.08.2018 03:00:00 - - - - - -
18.08.2018 02:00:00 - - - - - -
18.08.2018 01:00:00 - - - - - -
18.08.2018 00:00:00 - - - - - -
17.08.2018 23:00:00 - - - - - -
17.08.2018 22:00:00 - - - - - -
17.08.2018 21:00:00 - - - - - -
17.08.2018 20:00:00 26,0 21,0 11 6 NNE 10
17.08.2018 19:00:00 27,0 20,0 5 3 OSO 10
17.08.2018 18:00:00 27,0 18,0 5 3 NNE 10
17.08.2018 17:00:00 26,0 19,0 11 6 SO 10
17.08.2018 16:00:00 29,0 20,0 9 5 ENE 10
17.08.2018 15:00:00 29,0 20,0 4 2 - 10
17.08.2018 14:00:00 28,0 21,0 9 5 O 10
17.08.2018 13:00:00 26,0 20,0 9 5 OSO 10
17.08.2018 12:00:00 29,0 19,0 0 0 N 10
17.08.2018 11:00:00 28,0 19,0 5 3 NO 10
17.08.2018 10:00:00 27,0 20,0 11 6 N 10
17.08.2018 09:00:00 26,0 22,0 5 3 O 10
17.08.2018 08:00:00 23,0 21,0 0 0 N 10
17.08.2018 07:00:00 - - - - - -
17.08.2018 06:00:00 - - - - - -
17.08.2018 05:00:00 - - - - - -
17.08.2018 04:00:00 - - - - - -
17.08.2018 03:00:00 - - - - - -
17.08.2018 02:00:00 - - - - - -
17.08.2018 01:00:00 - - - - - -
17.08.2018 00:00:00 - - - - - -
16.08.2018 23:00:00 - - - - - -
16.08.2018 22:00:00 - - - - - -
16.08.2018 21:00:00 - - - - - -
16.08.2018 20:00:00 24,0 21,0 5 3 N 10
16.08.2018 19:00:00 25,0 21,0 5 3 - 10
16.08.2018 18:00:00 26,0 19,0 8 4 NO 10
16.08.2018 17:00:00 22,0 20,0 5 3 NO 10
16.08.2018 16:00:00 20,0 20,0 9 5 NNO 10
16.08.2018 15:00:00 20,0 20,0 9 5 O 6
16.08.2018 14:00:00 22,0 20,0 5 3 S 4,0
16.08.2018 13:00:00 30,0 18,0 16 9 NE 10
16.08.2018 12:00:00 30,0 19,0 16 9 NE 10
16.08.2018 11:00:00 29,0 20,0 16 9 NE 10
16.08.2018 10:00:00 28,0 21,0 16 9 N 10
16.08.2018 09:00:00 27,0 11,0 13 7 N 10
16.08.2018 08:00:00 25,0 21,0 15 8 N 10
16.08.2018 07:00:00 - - - - - -
16.08.2018 06:00:00 - - - - - -
16.08.2018 05:00:00 - - - - - -
16.08.2018 04:00:00 - - - - - -
16.08.2018 03:00:00 - - - - - -
16.08.2018 02:00:00 - - - - - -
16.08.2018 01:00:00 - - - - - -
16.08.2018 00:00:00 - - - - - -
15.08.2018 23:00:00 - - - - - -
15.08.2018 22:00:00 - - - - - -
15.08.2018 21:00:00 - - - - - -
15.08.2018 20:00:00 24,0 18,0 15 8 NNE 10
15.08.2018 19:00:00 25,0 18,0 16 9 NNE 10
15.08.2018 18:00:00 27,0 18,0 13 7 NNE 10
15.08.2018 17:00:00 27,0 19,0 21 11 N 10
15.08.2018 16:00:00 29,0 18,0 18 10 N 10
15.08.2018 15:00:00 28,0 17,0 21 11 OSO 10
15.08.2018 14:00:00 31,0 19,0 21 11 SO 10
15.08.2018 13:00:00 31,0 17,0 11 6 S 10
15.08.2018 12:00:00 30,0 18,0 0 0 N 10
15.08.2018 11:00:00 28,0 18,0 9 5 OSO 10
15.08.2018 10:00:00 27,0 19,0 13 7 OSO 10
15.08.2018 09:00:00 27,0 19,0 15 8 OSO 10
15.08.2018 08:00:00 26,0 20,0 5 3 NO 10
15.08.2018 07:00:00 - - - - - -
15.08.2018 06:00:00 - - - - - -
15.08.2018 05:00:00 - - - - - -
15.08.2018 04:00:00 - - - - - -
15.08.2018 03:00:00 - - - - - -
15.08.2018 02:00:00 - - - - - -
15.08.2018 01:00:00 - - - - - -
15.08.2018 00:00:00 - - - - - -
14.08.2018 23:00:00 - - - - - -
14.08.2018 22:00:00 - - - - - -
14.08.2018 21:00:00 - - - - - -
14.08.2018 20:00:00 29,0 17,0 9 5 SSO 10
14.08.2018 19:00:00 32,0 15,0 13 7 SO 10
14.08.2018 18:00:00 33,0 13,0 18 10 SSO 10
14.08.2018 17:00:00 35,0 12,0 13 7 SSO 10
14.08.2018 16:00:00 34,0 13,0 13 7 SO 10
14.08.2018 15:00:00 34,0 13,0 8 4 O 10
14.08.2018 14:00:00 34,0 12,0 13 7 SSO 10
14.08.2018 13:00:00 33,0 12,0 8 4 SO 10
14.08.2018 12:00:00 32,0 13,0 0 0 N 10
14.08.2018 11:00:00 31,0 15,0 4 2 - 10
14.08.2018 10:00:00 29,0 19,0 4 2 - 10
14.08.2018 09:00:00 26,0 22,0 4 2 - 10
14.08.2018 08:00:00 24,0 21,0 0 0 N 10
14.08.2018 07:00:00 - - - - - -
14.08.2018 06:00:00 - - - - - -
14.08.2018 05:00:00 - - - - - -
14.08.2018 04:00:00 - - - - - -
14.08.2018 03:00:00 - - - - - -
14.08.2018 02:00:00 - - - - - -
14.08.2018 01:00:00 - - - - - -
14.08.2018 00:00:00 - - - - - -
13.08.2018 23:00:00 - - - - - -
13.08.2018 22:00:00 - - - - - -
13.08.2018 21:00:00 - - - - - -
13.08.2018 20:00:00 29,0 21,0 13 7 S 10
13.08.2018 19:00:00 31,0 20,0 11 6 S 10
13.08.2018 18:00:00 32,0 15,0 15 8 S 10
13.08.2018 17:00:00 34,0 15,0 16 9 S 10
13.08.2018 16:00:00 34,0 15,0 13 7 S 10
13.08.2018 15:00:00 34,0 16,0 11 6 S 10
13.08.2018 14:00:00 33,0 15,0 13 7 S 10
13.08.2018 13:00:00 33,0 18,0 13 7 S 10
13.08.2018 12:00:00 32,0 18,0 9 5 S 10
13.08.2018 11:00:00 32,0 18,0 5 3 S 10
13.08.2018 10:00:00 31,0 20,0 0 0 N 10

tt = Temperatura
td = dewpoint
ff = velocità del vento
dd = direzione del vento
vv = visibility

Stazioni seguenti

WeatherPro
AMSI
MeteoEarth